Home   Weather   Lübbecke   Past weeks

Flag for Germany Past Weather in Lübbecke, North Rhine-Westphalia, Germany — Yesterday and Last 2 Weeks

Now
61 °F

Drizzle. Fog.


Feels Like: 61 °F
Forecast: 54 / 68 °F
Wind: 12 mph from North

Location: Bueckeburg

Current Time: Jul 25, 2017 at 4:54:50 pm

Latest Report: Jul 25, 2017 at 4:20 pm


Visibility: 3 mi

Pressure: 29.65 "Hg

Humidity: 94%

Dew Point: 59 °F

Location of LübbeckeLocation

Past Weather in Lübbecke — Graph

°F

Lübbecke Temperature Yesterday

Maximum temperature yesterday: 61 °F (at 7:20 am)
Minimum temperature yesterday: 57 °F (at 8:20 pm)
Average temperature yesterday: 59 °F

High & Low Weather Summary for the Past Weeks

 TemperatureHumidityPressure
High90 °F (Jul 19, 5:20 pm)100% (Jul 10, 11:20 pm)30.21 "Hg (Jul 10, 11:20 pm)
Low52 °F (Jul 13, 4:20 am)38% (Jul 14, 2:20 pm)29.65 "Hg (Jul 25, 3:20 pm)
Average64 °F79%29.94 "Hg
* Reported Jul 10 3:20 pm — Jul 25 3:20 pm, Lübbecke. Weather by CustomWeather, © 2017

Note: Actual official high and low records may vary slightly from our data, if they occured in-between our weather recording intervals... More about our weather records

Advertising

Lübbecke Weather History for the Previous 24 Hours

Scroll right to see more
 ConditionsComfort  
Time TempWeatherWind HumidityBarometerVisibility
3:20 pm
Tue, Jul 25
63 °FDrizzle. Broken clouds.5 mph94%29.65 "Hg5 mi
2:35 pm61 °FDrizzle. Broken clouds.7 mph94%29.68 "Hg5 mi
2:20 pm61 °FDrizzle. Fog.6 mph94%29.68 "Hg2 mi
1:49 pm61 °FDrizzle. Fog.10 mph94%29.68 "Hg2 mi
1:20 pm61 °FLight rain. Partly sunny.10 mph94%29.68 "Hg5 mi
12:49 pm61 °FLight rain. Partly sunny.12 mph94%29.68 "Hg4 mi
12:20 pm61 °FRain. Fog.13 mph94%29.68 "Hg3 mi
11:20 am61 °FLight rain. Fog.12 mph94%29.71 "Hg3 mi
10:20 am59 °FLight rain. Fog.9 mph100%29.71 "Hg2 mi
9:20 am59 °FRain. Fog.12 mph94%29.71 "Hg3 mi
8:52 am57 °FRain. Fog.12 mph100%29.71 "Hg2 mi
8:31 am57 °FRain. Fog.12 mph100%29.71 "Hg2 mi
7:20 am57 °FLight rain. Fog.6 mph100%29.74 "Hg1 mi
6:20 am57 °FDrizzle. Fog.9 mph100%29.74 "Hg1 mi
5:41 am57 °FLight rain. Fog.9 mph100%29.74 "Hg2 mi
5:20 am57 °FLight rain. Fog.8 mph100%29.74 "Hg1 mi
4:20 am57 °FCool.6 mph100%29.74 "Hg1 mi
3:20 am57 °FCool.6 mph100%29.74 "Hg2 mi
2:20 am57 °FCool.7 mph100%29.77 "Hg1 mi
1:20 am57 °FCool.8 mph100%29.77 "Hg1 mi
12:20 am57 °FCool.8 mph100%29.77 "Hg1 mi
11:20 pm
Mon, Jul 24
57 °FCool.8 mph100%29.77 "Hg2 mi
10:20 pm57 °FCool.7 mph100%29.80 "Hg1 mi
9:20 pm57 °FCool.6 mph100%29.80 "Hg2 mi
8:20 pm57 °FCool.5 mph100%29.77 "Hg2 mi
7:52 pm59 °FRain. Fog.6 mph94%29.77 "Hg3 mi
7:20 pm59 °FRain. Fog.6 mph94%29.77 "Hg3 mi
6:31 pm59 °FRain. Mostly cloudy.5 mph94%29.77 "Hg4 mi
5:20 pm59 °FLight rain. Mostly cloudy.6 mph94%29.77 "HgN/A
4:20 pm61 °FLight rain. Mostly cloudy.6 mph88%29.77 "HgN/A
Weather by CustomWeather, © 2017

See weather overviewHow to use our weather pages